Weather History for KPBI - April, 2013

Change the Weather History Date:

Thursday, April 4, 2013

  Actual Average Record
Temperature  
Mean Temperature 76 °F 72 °F  
Max Temperature 84 °F 80 °F 92 °F (1949)
Min Temperature 68 °F 64 °F 41 °F (1915)
Degree Days  
Heating Degree Days 0 0  
Month to date heating degree days 0 0  
Since 1 July heating degree days 164 229  
Cooling Degree Days 11 8  
Month to date cooling degree days 46 29  
Year to date cooling degree days 517 457  
Growing Degree Days 26 (Base 50)    
Moisture  
Dew Point 68 °F    
Average Humidity 78    
Maximum Humidity 90    
Minimum Humidity 65    
Precipitation  
Precipitation 1.54 in 0.14 in 1.67 in (1898)
Month to date precipitation 1.54 0.58  
Year to date precipitation 5.70 11.12  
Snow  
Snow 0.00 in - - ()
Month to date snowfall 0.0  
Since 1 July snowfall 0.0  
Snow Depth 0.00 in    
Sea Level Pressure  
Sea Level Pressure 29.99 in    
Wind  
Wind Speed 12 mph (SSE)    
Max Wind Speed 26 mph    
Max Gust Speed 32 mph    
Visibility 9 miles    
Events Fog , Rain , Thunderstorm    
T = Trace of Precipitation, MM = Missing Value Source: NWS Daily Summary

Daily Weather History Graph

Daily Weather History Graph

Search for Another Location

Airport or City:

Trip Planner

Search our weather history database for the weather conditions in past years. The results will help you decide how hot, cold, wet, or windy it might be!

Date:

Astronomy

Apr. 04, 2013 Rise Set
Actual Time 7:07 AM EDT 7:39 PM EDT
Civil Twilight 6:44 AM EDT 8:02 PM EDT
Nautical Twilight 6:17 AM EDT 8:29 PM EDT
Astronomical Twilight 5:49 AM EDT 8:57 PM EDT
Moon 3:02 AM EDT (4/4) 2:24 PM EDT (4/4)
Length of Visible Light 13h 18m
Length of Day
12h 31m
Waning Crescent, 34% of the Moon is Illuminated
Apr 4
Waning Crescent
Apr 10
New
Apr 18
First Quarter
Apr 25
Full
May 2
Last Quarter

Hourly Weather History & Observations

Time (EDT) Temp. Heat Index Dew Point Humidity Pressure Visibility Wind Dir Wind Speed Gust Speed Precip Events Conditions
12:53 AM 75.0 °F - 69.1 °F 82% 30.05 in 10.0 mi SE 9.2 mph - N/A   Mostly Cloudy
1:53 AM 75.0 °F - 69.1 °F 82% 30.03 in 10.0 mi SE 10.4 mph - N/A   Mostly Cloudy
2:53 AM 75.0 °F - 68.0 °F 79% 30.01 in 10.0 mi SE 12.7 mph - N/A   Mostly Cloudy
3:53 AM 73.9 °F - 66.9 °F 79% 29.98 in 10.0 mi SE 12.7 mph - N/A   Scattered Clouds
4:53 AM 73.9 °F - 66.9 °F 79% 29.99 in 10.0 mi SSE 11.5 mph - N/A   Scattered Clouds
5:53 AM 73.9 °F - 66.0 °F 76% 29.99 in 10.0 mi SSE 15.0 mph - N/A   Scattered Clouds
6:53 AM 73.9 °F - 68.0 °F 82% 30.01 in 10.0 mi South 9.2 mph - N/A   Mostly Cloudy
7:53 AM 75.0 °F - 66.9 °F 76% 30.02 in 10.0 mi SSE 9.2 mph - N/A   Mostly Cloudy
8:53 AM 75.9 °F - 66.9 °F 74% 30.00 in 10.0 mi SSE 10.4 mph - N/A   Mostly Cloudy
9:53 AM 75.9 °F - 68.0 °F 76% 29.99 in 10.0 mi SSE 13.8 mph - N/A   Mostly Cloudy
10:53 AM 80.1 °F 82.9 °F 69.1 °F 69% 30.00 in 10.0 mi SSE 15.0 mph - N/A   Mostly Cloudy
11:09 AM 80.6 °F 83.9 °F 69.8 °F 70% 30.00 in 10.0 mi SSE 17.3 mph 23.0 mph N/A   Mostly Cloudy
11:53 AM 81.0 °F 83.8 °F 68.0 °F 65% 30.01 in 10.0 mi South 18.4 mph 26.5 mph N/A   Mostly Cloudy
12:53 PM 82.0 °F 85.5 °F 69.1 °F 65% 30.01 in 10.0 mi South 15.0 mph - N/A   Overcast
1:53 PM 82.0 °F 85.9 °F 70.0 °F 67% 29.99 in 10.0 mi SSE 9.2 mph - N/A   Overcast
2:00 PM 82.4 °F 86.3 °F 69.8 °F 66% 29.99 in 10.0 mi SE 13.8 mph 18.4 mph N/A   Mostly Cloudy
2:53 PM 82.9 °F 87.5 °F 71.1 °F 67% 29.96 in 10.0 mi SSE 15.0 mph 21.9 mph N/A   Mostly Cloudy
3:53 PM 80.1 °F 83.2 °F 70.0 °F 71% 29.93 in 10.0 mi SSE 17.3 mph 26.5 mph N/A   Overcast
4:53 PM 78.1 °F - 70.0 °F 76% 29.94 in 10.0 mi SSE 15.0 mph - 0.00 in Rain Light Rain
5:07 PM 75.2 °F - 68.0 °F 78% 29.98 in 10.0 mi North 13.8 mph 32.2 mph 0.00 in Rain , Thunderstorm Light Thunderstorms and Rain
5:15 PM 69.8 °F - 64.4 °F 83% 30.00 in 5.0 mi NW 11.5 mph 21.9 mph 0.01 in Rain , Thunderstorm Light Thunderstorms and Rain
5:17 PM 69.8 °F - 66.2 °F 88% 30.00 in 0.5 mi NW 13.8 mph 21.9 mph 0.02 in Fog , Rain , Thunderstorm Heavy Thunderstorms and Rain
5:19 PM 69.8 °F - 66.2 °F 88% 30.01 in 0.2 mi NW 12.7 mph 19.6 mph 0.06 in Fog , Rain , Thunderstorm Heavy Thunderstorms and Rain
5:27 PM 68.0 °F - 66.2 °F 94% 30.01 in 0.2 mi Variable 4.6 mph - 0.42 in Fog , Rain , Thunderstorm Heavy Thunderstorms and Rain
5:34 PM 68.0 °F - 66.2 °F 94% 30.00 in 2.0 mi Variable 5.8 mph - 0.63 in Rain , Thunderstorm Heavy Thunderstorms and Rain
5:39 PM 68.0 °F - 66.2 °F 94% 30.00 in 7.0 mi NW 6.9 mph - 0.65 in Rain , Thunderstorm Light Thunderstorms and Rain
5:45 PM 68.0 °F - 66.2 °F 94% 30.01 in 10.0 mi West 8.1 mph - 0.66 in Rain , Thunderstorm Light Thunderstorms and Rain
5:53 PM 69.1 °F - 66.0 °F 90% 30.00 in 10.0 mi NNW 16.1 mph 19.6 mph 0.66 in Rain , Thunderstorm Light Thunderstorms and Rain
5:57 PM 69.8 °F - 66.2 °F 88% 30.01 in 10.0 mi NNW 23.0 mph - 0.01 in Rain Light Rain
6:11 PM 69.8 °F - 66.2 °F 88% 30.00 in 10.0 mi North 10.4 mph - 0.01 in Rain Light Rain
6:53 PM 69.1 °F - 66.9 °F 93% 30.00 in 10.0 mi North 4.6 mph - 0.03 in Rain Light Rain
7:53 PM 70.0 °F - 66.0 °F 87% 29.94 in 10.0 mi East 6.9 mph - 0.01 in Rain Light Rain
8:53 PM 72.0 °F - 68.0 °F 87% 29.91 in 10.0 mi East 13.8 mph - 0.00 in   Mostly Cloudy
9:53 PM 73.0 °F - 68.0 °F 84% 29.93 in 10.0 mi ESE 8.1 mph - N/A   Mostly Cloudy
10:53 PM 73.0 °F - 69.1 °F 87% 29.96 in 10.0 mi SE 5.8 mph - N/A   Mostly Cloudy
11:53 PM 73.9 °F - 69.1 °F 85% 29.97 in 10.0 mi South 4.6 mph - N/A   Overcast